Notices

What's New in latest Release from April 7th, 2021:

- Updated Glossary, including Speed of Maximum Gust, and Total Hourly Precipitation

- Updated national and regional climate services offices contacts and prices information

- Addition of station inventory lists for 1981-2010, 1971-2000, and 1961-1990 Normals.

If you haven't already, please take our survey and provide feedback about our website: https://eccc.sondage-survey.ca/f/LanguageSelection.aspx?s=442ca660-fcf1-47c0-95a9-59707d6fd709

Hourly Data Report for August 04, 2003

TORONTO CITY
ONTARIO

43°40'00.000" N
79°24'00.000" W
112.50 m
6158355
71508
XTO

Download Data

Hourly Data (August 2003)
Hourly Data Report for August 4, 2003
TIME
LST
Temp Definition
°C
Dew Point Definition
°C
Rel Hum Definition
%
Precip. Amount Definition
mm

Wind Dir Definition
10's deg

Wind Spd Definition
km/h
Visibility Definition
km
Stn Press Definition
kPa
Hmdx Definition


Wind Chill Definition


Weather Definition


00:00 20.8 20.4 98   LegendMM LegendMM LegendMM 99.82 29   LegendNANA
01:00 20.3 19.9 98   LegendMM LegendMM LegendMM 99.79 28   LegendNANA
02:00 20.0 19.7 98   LegendMM LegendMM LegendMM 99.81 27   LegendNANA
03:00 19.3 19.1 99   LegendMM LegendMM LegendMM 99.82     LegendNANA
04:00 19.2 19.1 99   LegendMM LegendMM LegendMM 99.83     LegendNANA
05:00 19.5 19.5 100   LegendMM LegendMM LegendMM 99.85     LegendNANA
06:00 19.6 19.6 100   LegendMM LegendMM LegendMM 99.87     LegendNANA
07:00 20.3 20.1 99   LegendMM LegendMM LegendMM 99.89 28   LegendNANA
08:00 21.8 21.0 95   LegendMM LegendMM LegendMM 99.85 30   LegendNANA
09:00 23.7 21.1 85   LegendMM LegendMM LegendMM 99.84 32   LegendNANA
10:00 23.8 21.2 85   LegendMM LegendMM LegendMM 99.88 32   LegendNANA
11:00 24.9 21.0 79   LegendMM LegendMM LegendMM 99.87 33   LegendNANA
12:00 26.5 21.7 75   LegendMM LegendMM LegendMM 99.83 36   LegendNANA
13:00 27.2 21.5 71   LegendMM LegendMM LegendMM 99.81 36   LegendNANA
14:00 26.8 20.6 69   LegendMM LegendMM LegendMM 99.78 35   LegendNANA
15:00 27.2 20.8 68   LegendMM LegendMM LegendMM 99.71 35   LegendNANA
16:00 27.0 20.9 69   LegendMM LegendMM LegendMM 99.67 35   LegendNANA
17:00 26.4 20.3 69   LegendMM LegendMM LegendMM 99.65 34   LegendNANA
18:00 24.1 21.1 83   LegendMM LegendMM LegendMM 99.65 33   LegendNANA
19:00 23.4 20.3 83   LegendMM LegendMM LegendMM 99.65 31   LegendNANA
20:00 22.8 20.3 86   LegendMM LegendMM LegendMM 99.71 31   LegendNANA
21:00 22.1 20.2 89   LegendMM LegendMM LegendMM 99.75 30   LegendNANA
22:00 21.7 20.0 90   LegendMM LegendMM LegendMM 99.72 29   LegendNANA
23:00 21.4 20.3 93   LegendMM LegendMM LegendMM 99.70 29   LegendNANA

Notes on Data Quality.

Legend

  • E = Estimated
  • M = Missing
  • NA = Not Available*
  • [empty] = Indicates an unobserved value
Date modified: